CAPE
0 0 0 0 0 0 0 0 0 0 0 0 12 33 93 99 176 310 370 406 462 439
0 0 0 0 0 0 0 0 0 0 0 0 0 4 0 18 23 76 144 325 309 412
0 0 0 0 0 0 0 0 0 0 0 0 0 0 0 0 7 7 41 70 192 139
0 0 0 0 0 0 0 0 0 0 0 0 0 0 0 0 0 0 20 63 7 52
0 0 0 0 0 0 0 0 0 0 0 0 0 0 0 0 0 0 0 11 48 57
0 0 0 0 0 0 0 0 0 0 0 0 0 0 18 19 3 0 23 41 44 61
0 0 0 0 0 0 0 0 0 0 3 5 1 0 0 28 37 16 21 60 97 70
0 0 0 0 0 0 0 0 5 2 8 6 0 0 0 1 8 21 22 73 117 139
0 0 0 0 0 0 0 0 1 0 0 0 0 0 0 0 0 8 19 73 111 157
0 1 1 1 0 0 0 0 1 9 4 6 0 0 0 0 0 0 34 74 132 162
0 0 2 7 5 1 0 1 4 2 6 0 0 0 0 0 0 0 38 52 123 317
1 1 1 4 2 1 1 0 2 4 4 3 0 0 0 0 3 11 14 43 101 197
1 1 3 5 22 12 5 2 4 2 1 2 0 0 0 3 18 55 23 16 64 32
1 1 3 4 15 21 11 4 5 2 1 0 0 0 0 1 28 34 26 44 10 38
CIN
-0 -0 -0 -0 -0 -0 -0 -0 -0 -0 -0 -0 -148 -128 -80 -59 -38 -20 -16 -8 -7 -4
-0 -0 -0 -0 -0 -0 -0 -0 -0 -0 -0 -0 -0 -37 -0 -119 -93 -43 -17 -2 -6 -1
-0 -0 -0 -0 -0 -0 -0 -0 -0 -0 -0 -0 -0 -0 -0 -0 -65 -61 -53 -21 -3 -3
-0 -0 -0 -0 -0 -0 -0 -0 -0 -0 -0 -0 -0 -0 -0 -0 -0 -0 -57 -45 -21 -10
-0 -0 -0 -0 -0 -0 -0 -0 -0 -0 -0 -0 -0 -0 -0 -0 -0 -0 -0 -57 -33 -32
-0 -0 -0 -0 -0 -0 -0 -0 -0 -0 -0 -0 -0 -0 -70 -79 -104 -26 -88 -63 -46 -36
-0 -0 -0 -0 -0 -0 -0 -0 -0 -0 -0 -1 -0 -0 -15 -47 -60 -99 -87 -83 -57 -55
-0 -0 -0 -0 -0 -0 -0 -0 -0 -1 -1 -1 -0 -0 -3 -55 -50 -36 -56 -78 -72 -49
-0 -0 -0 -0 -0 -0 -0 -0 -1 -0 -0 -0 -0 -0 -0 -0 -0 -38 -33 -70 -78 -61
-0 -0 -0 -6 -0 -2 -0 -0 -0 -0 -0 -0 -1 -0 -0 -0 -0 -0 -36 -72 -32 -30
-0 -0 -0 -0 -0 -0 -0 -0 -0 -0 -0 -0 -0 -0 -0 -0 -0 -0 -32 -42 -2 -0
-0 -0 -0 -2 -0 -0 -1 -1 -0 -0 -0 -0 -0 -0 -0 -0 -13 -19 -23 -17 -0 -6
-0 -0 -0 -0 -0 -1 -4 -3 -0 -0 -0 -0 -0 -0 -0 -39 -28 -12 -11 -8 -1 -32
-0 -0 -0 -0 -0 -0 -1 -4 -0 -0 -0 -0 -0 -0 -0 -40 -29 -6 -3 -8 -8 -36
Wind_Speed
39 41 42 43 44 45 47 48 47 45 42 38 37 36 37 39 39 40 41 41 41 40
43 45 47 49 49 50 51 51 50 50 48 45 41 38 37 37 38 38 41 43 43 41
50 50 50 51 53 53 52 50 50 50 49 48 45 42 40 39 38 40 38 38 43 45
51 52 51 51 51 50 49 48 47 46 46 45 44 42 41 40 39 40 40 39 40 42
48 48 50 48 46 46 48 48 49 49 49 48 47 45 44 43 42 42 42 41 40 40
45 44 44 45 45 45 44 47 48 50 50 49 47 45 45 44 43 42 42 42 41 41
43 41 41 42 44 45 46 48 48 47 46 46 46 45 42 43 44 44 43 44 45 45
40 41 42 43 44 46 46 47 47 47 45 45 46 45 41 38 39 41 43 45 48 51
41 43 45 45 44 44 44 46 46 46 45 44 42 41 41 41 41 43 44 45 50 54
43 43 44 44 44 44 45 46 47 46 41 40 39 39 43 48 44 42 44 47 50 51
43 44 44 45 45 43 39 37 37 37 37 39 40 43 44 44 41 42 43 44 47 43
40 42 46 46 43 38 33 31 31 34 32 36 40 40 39 37 32 41 43 42 39 41
39 42 43 41 40 30 26 19 16 20 31 36 38 37 36 33 35 38 40 41 37 36
38 39 37 38 36 29 27 23 21 14 23 31 33 33 32 32 33 37 39 33 33 17
Wind_Direction
302 301 300 300 300 298 296 295 295 294 293 291 291 290 288 287 286 285 283 282 280 279
302 301 299 297 297 296 295 295 294 291 289 288 286 287 287 286 286 285 284 282 280 276
300 300 300 299 296 296 296 296 295 293 290 287 285 284 283 282 283 285 285 284 281 276
302 302 302 301 300 298 297 296 294 294 293 291 286 283 282 281 281 282 284 284 281 278
309 308 305 305 304 303 300 298 294 292 289 288 287 284 281 281 280 280 281 280 278 277
310 311 310 309 308 307 304 301 298 295 290 286 284 284 280 279 280 280 280 280 278 275
314 316 314 313 312 311 308 304 301 298 290 287 284 281 281 278 278 277 278 278 276 274
319 319 317 316 314 312 310 306 301 298 292 289 285 279 277 278 279 277 278 279 276 270
325 324 321 319 317 314 311 309 303 297 293 290 286 281 271 272 278 280 278 279 278 270
330 328 326 323 319 315 312 309 305 298 293 290 290 286 277 269 272 279 279 278 275 269
336 333 331 327 323 319 317 315 312 306 297 291 289 281 276 271 263 275 277 277 274 265
340 337 335 331 329 325 323 323 319 311 300 291 285 280 275 275 260 270 272 274 269 257
344 342 339 340 339 337 332 332 330 325 299 285 278 271 267 266 264 268 267 264 264 256
348 347 347 346 344 341 337 339 337 334 237 247 252 262 255 266 265 251 255 255 254 253